| time (UTC) | temp F | wind direction | speed MPH | gust MPH | rain 1hr in | rain 24hr in | rain mn in | humidity % | barometer mb |
| 20260505153033 | 76 | 265 | 2.0 | 4.0 | 0.00 | 0.01 | 0.01 | 45 | 1010.2 |
| 20260505152531 | 75 | 241 | 1.0 | 4.0 | 0.00 | 0.01 | 0.01 | 48 | 1010.2 |
| 20260505152030 | 75 | 248 | 2.0 | 4.0 | 0.00 | 0.01 | 0.01 | 49 | 1010.2 |
| 20260505151532 | 74 | 262 | 2.0 | 4.0 | 0.00 | 0.01 | 0.01 | 50 | 1010.2 |
| 20260505151027 | 74 | 241 | 1.0 | 4.0 | 0.00 | 0.01 | 0.01 | 53 | 1010.1 |
| 20260505150526 | 73 | 237 | 1.0 | 4.0 | 0.00 | 0.01 | 0.01 | 50 | 1010.2 |
| 20260505140513 | 69 | 279 | 1.0 | 5.0 | 0.00 | 0.01 | 0.01 | 59 | 1010.8 |
| 20260505130105 | 64 | 236 | 2.0 | 5.0 | 0.00 | 0.01 | 0.01 | 62 | 1011.1 |
| 20260505124600 | 64 | 258 | 1.0 | 5.0 | 0.00 | 0.01 | 0.01 | 64 | 1011.0 |
| 20260505124058 | 63 | 240 | 2.0 | 4.0 | 0.00 | 0.01 | 0.01 | 65 | 1011.0 |
| 20260505123558 | 63 | 266 | 2.0 | 4.0 | 0.00 | 0.01 | 0.01 | 65 | 1010.9 |
| 20260505123100 | 63 | 264 | 1.0 | 4.0 | 0.00 | 0.01 | 0.01 | 65 | 1010.7 |
| 20260505122553 | 62 | 264 | 1.0 | 3.0 | 0.00 | 0.01 | 0.01 | 66 | 1010.7 |
| 20260505122053 | 62 | 239 | 1.0 | 3.0 | 0.00 | 0.01 | 0.01 | 67 | 1010.7 |
| 20260505121620 | 62 | 234 | 1.0 | 3.0 | 0.00 | 0.01 | 0.01 | 68 | 1010.7 |
| 20260505121051 | 61 | 234 | 1.0 | 4.0 | 0.00 | 0.01 | 0.01 | 68 | 1010.7 |
| 20260505120550 | 61 | 234 | 1.0 | 4.0 | 0.00 | 0.01 | 0.01 | 68 | 1010.7 |
| 20260505120048 | 61 | 250 | 1.0 | 3.0 | 0.00 | 0.01 | 0.01 | 70 | 1010.6 |
| 20260505115547 | 60 | 233 | 1.0 | 3.0 | 0.00 | 0.01 | 0.01 | 71 | 1010.6 |
| 20260505115047 | 60 | 214 | 0.0 | 2.0 | 0.00 | 0.01 | 0.01 | 72 | 1010.7 |
| 20260505114547 | 59 | 164 | 0.0 | 2.0 | 0.00 | 0.01 | 0.01 | 73 | 1010.6 |
| 20260505114047 | 58 | 164 | 0.0 | 2.0 | 0.00 | 0.01 | 0.01 | 76 | 1010.6 |
| 20260505113548 | 58 | 164 | 0.0 | 1.0 | 0.00 | 0.01 | 0.01 | 77 | 1010.7 |
| 20260505113049 | 57 | 164 | 0.0 | 2.0 | 0.00 | 0.01 | 0.01 | 76 | 1010.6 |
| 20260505112546 | 57 | 164 | 0.0 | 3.0 | 0.00 | 0.01 | 0.01 | 77 | 1010.6 |
| 20260505112046 | 57 | 161 | 1.0 | 3.0 | 0.00 | 0.01 | 0.01 | 78 | 1010.6 |
| 20260505111549 | 56 | 163 | 0.0 | 3.0 | 0.00 | 0.01 | 0.01 | 79 | 1010.5 |
| 20260505111048 | 55 | 185 | 1.0 | 2.0 | 0.00 | 0.01 | 0.01 | 80 | 1010.6 |
| 20260505110545 | 54 | 185 | 0.0 | 2.0 | 0.00 | 0.01 | 0.01 | 81 | 1010.6 |
| 20260505102041 | 53 | 185 | 0.0 | 2.0 | 0.00 | 0.01 | 0.01 | 80 | 1010.4 |
| 20260505101543 | 53 | 185 | 1.0 | 2.0 | 0.00 | 0.01 | 0.01 | 79 | 1010.4 |
| 20260505101040 | 53 | 185 | 0.0 | 1.0 | 0.00 | 0.01 | 0.01 | 79 | 1010.4 |
| 20260505100539 | 53 | 185 | 0.0 | 2.0 | 0.00 | 0.01 | 0.01 | 79 | 1010.3 |
| 20260505100051 | 53 | 185 | 0.0 | 2.0 | 0.00 | 0.01 | 0.01 | 79 | 1010.3 |
| 20260505095542 | 54 | 185 | 0.0 | 2.0 | 0.00 | 0.01 | 0.01 | 78 | 1010.2 |
| 20260505095041 | 54 | 185 | 0.0 | 2.0 | 0.00 | 0.01 | 0.01 | 78 | 1010.2 |
| 20260505094541 | 54 | 185 | 0.0 | 1.0 | 0.00 | 0.01 | 0.01 | 78 | 1010.4 |
| 20260505094036 | 55 | 185 | 0.0 | 1.0 | 0.00 | 0.01 | 0.01 | 77 | 1010.4 |
| 20260505093534 | 55 | 185 | 0.0 | 1.0 | 0.00 | 0.01 | 0.01 | 77 | 1010.3 |
| 20260505093033 | 55 | 185 | 0.0 | 2.0 | 0.00 | 0.01 | 0.01 | 77 | 1010.3 |
| 20260505092534 | 55 | 185 | 0.0 | 2.0 | 0.00 | 0.01 | 0.01 | 76 | 1010.2 |
| 20260505092032 | 56 | 185 | 0.0 | 2.0 | 0.00 | 0.01 | 0.01 | 76 | 1010.2 |
| 20260505091536 | 56 | 185 | 0.0 | 2.0 | 0.00 | 0.01 | 0.01 | 74 | 1010.1 |
| 20260505091030 | 56 | 185 | 0.0 | 2.0 | 0.00 | 0.01 | 0.01 | 75 | 1010.0 |
| 20260505090528 | 56 | 185 | 0.0 | 2.0 | 0.00 | 0.01 | 0.01 | 74 | 1009.9 |
| 20260505090028 | 57 | 185 | 0.0 | 2.0 | 0.00 | 0.01 | 0.01 | 73 | 1009.8 |
| 20260505085530 | 57 | 185 | 0.0 | 0.0 | 0.00 | 0.01 | 0.01 | 72 | 1009.7 |
| 20260505085030 | 57 | 185 | 0.0 | 0.0 | 0.00 | 0.01 | 0.01 | 72 | 1009.7 |
| 20260505084528 | 57 | 185 | 0.0 | 0.0 | 0.00 | 0.01 | 0.01 | 72 | 1009.6 |
| 20260505084027 | 57 | 185 | 0.0 | 1.0 | 0.00 | 0.01 | 0.01 | 73 | 1009.6 |
| 20260505083527 | 57 | 185 | 0.0 | 2.0 | 0.00 | 0.01 | 0.01 | 73 | 1009.6 |
| 20260505083036 | 57 | 185 | 0.0 | 2.0 | 0.00 | 0.01 | 0.01 | 73 | 1009.7 |
| 20260505082529 | 57 | 185 | 0.0 | 1.0 | 0.00 | 0.01 | 0.01 | 73 | 1009.7 |
| 20260505082029 | 57 | 185 | 0.0 | 1.0 | 0.00 | 0.01 | 0.01 | 75 | 1009.7 |
| 20260505081531 | 57 | 185 | 0.0 | 1.0 | 0.00 | 0.01 | 0.01 | 75 | 1009.7 |
| 20260505081027 | 56 | 185 | 0.0 | 1.0 | 0.01 | 0.01 | 0.01 | 77 | 1009.7 |
| 20260505080531 | 56 | 185 | 0.0 | 1.0 | 0.01 | 0.01 | 0.01 | 77 | 1009.8 |
| 20260505080043 | 56 | 185 | 0.0 | 1.0 | 0.01 | 0.01 | 0.01 | 77 | 1009.7 |
| 20260505075528 | 56 | 185 | 0.0 | 1.0 | 0.01 | 0.01 | 0.01 | 78 | 1009.7 |
| 20260505075029 | 56 | 185 | 0.0 | 1.0 | 0.01 | 0.01 | 0.01 | 77 | 1009.8 |
| 20260505074526 | 56 | 185 | 0.0 | 0.0 | 0.01 | 0.01 | 0.01 | 77 | 1009.8 |
| 20260505074027 | 56 | 185 | 0.0 | 0.0 | 0.01 | 0.01 | 0.01 | 77 | 1009.7 |
| 20260505073524 | 57 | 185 | 0.0 | 1.0 | 0.01 | 0.01 | 0.01 | 77 | 1009.8 |
| 20260505073026 | 57 | 185 | 0.0 | 2.0 | 0.01 | 0.01 | 0.01 | 76 | 1009.7 |
| 20260505072522 | 57 | 185 | 0.0 | 2.0 | 0.01 | 0.01 | 0.01 | 75 | 1009.7 |
| 20260505072021 | 58 | 185 | 1.0 | 2.0 | 0.01 | 0.01 | 0.01 | 74 | 1009.8 |
| 20260505071528 | 58 | 185 | 1.0 | 2.0 | 0.01 | 0.01 | 0.01 | 72 | 1009.7 |
| 20260505071022 | 58 | 122 | 0.0 | 2.0 | 0.00 | 0.00 | 0.00 | 69 | 1009.7 |
| 20260505070517 | 59 | 122 | 0.0 | 1.0 | 0.00 | 0.00 | 0.00 | 66 | 1009.6 |
| 20260505070017 | 59 | 122 | 0.0 | 1.0 | 0.00 | 0.00 | 0.00 | 66 | 1009.7 |
| 20260505065517 | 59 | 122 | 0.0 | 1.0 | 0.00 | 0.00 | 0.00 | 65 | 1009.7 |
| 20260505065019 | 59 | 122 | 0.0 | 1.0 | 0.00 | 0.00 | 0.00 | 65 | 1009.7 |
| 20260505064516 | 59 | 122 | 0.0 | 2.0 | 0.00 | 0.00 | 0.00 | 64 | 1009.7 |
| 20260505064015 | 59 | 122 | 0.0 | 2.0 | 0.00 | 0.00 | 0.00 | 64 | 1009.8 |
| 20260505063516 | 59 | 122 | 0.0 | 2.0 | 0.00 | 0.00 | 0.00 | 64 | 1009.8 |
| 20260505063026 | 59 | 122 | 0.0 | 2.0 | 0.00 | 0.00 | 0.00 | 64 | 1009.8 |
| 20260505062516 | 59 | 122 | 0.0 | 2.0 | 0.00 | 0.00 | 0.00 | 63 | 1009.8 |
| 20260505062017 | 59 | 122 | 0.0 | 2.0 | 0.00 | 0.00 | 0.00 | 64 | 1009.8 |
| 20260505061515 | 59 | 122 | 0.0 | 2.0 | 0.00 | 0.00 | 0.00 | 63 | 1009.8 |
| 20260505061017 | 59 | 122 | 0.0 | 2.0 | 0.00 | 0.00 | 0.00 | 64 | 1009.8 |
| 20260505060513 | 59 | 122 | 0.0 | 2.0 | 0.00 | 0.00 | 0.00 | 63 | 1009.8 |
| 20260505060013 | 59 | 122 | 0.0 | 2.0 | 0.00 | 0.00 | 0.00 | 63 | 1009.8 |
| 20260505055513 | 59 | 122 | 0.0 | 2.0 | 0.00 | 0.00 | 0.00 | 63 | 1009.7 |
| 20260505055013 | 59 | 122 | 0.0 | 2.0 | 0.00 | 0.00 | 0.00 | 63 | 1009.7 |
| 20260505054514 | 59 | 122 | 0.0 | 2.0 | 0.00 | 0.00 | 0.00 | 63 | 1009.7 |
| 20260505054012 | 59 | 122 | 0.0 | 3.0 | 0.00 | 0.00 | 0.00 | 63 | 1009.6 |
| 20260505053512 | 59 | 122 | 0.0 | 3.0 | 0.00 | 0.00 | 0.00 | 62 | 1009.7 |
| 20260505053012 | 59 | 101 | 0.0 | 5.0 | 0.00 | 0.00 | 0.00 | 62 | 1009.6 |
| 20260505052511 | 59 | 187 | 1.0 | 5.0 | 0.00 | 0.00 | 0.00 | 62 | 1009.5 |
| 20260505052011 | 59 | 102 | 0.0 | 3.0 | 0.00 | 0.00 | 0.00 | 61 | 1009.7 |
| 20260505051509 | 59 | 101 | 0.0 | 3.0 | 0.00 | 0.00 | 0.00 | 61 | 1009.7 |
| 20260505051009 | 59 | 145 | 0.0 | 1.0 | 0.00 | 0.00 | 0.00 | 60 | 1009.8 |
| 20260505050508 | 59 | 145 | 0.0 | 1.0 | 0.00 | 0.00 | 0.00 | 60 | 1009.8 |
| 20260505041611 | 61 | 165 | 2.0 | 5.0 | 0.00 | 0.00 | 0.00 | 55 | 1009.7 |
| 20260505041100 | 61 | 186 | 1.0 | 8.0 | 0.00 | 0.00 | 0.00 | 54 | 1009.7 |
| 20260505040559 | 61 | 158 | 2.0 | 9.0 | 0.00 | 0.00 | 0.00 | 53 | 1009.7 |
| 20260505040104 | 61 | 143 | 3.0 | 10.0 | 0.00 | 0.00 | 0.00 | 54 | 1009.6 |
| 20260505035558 | 61 | 158 | 2.0 | 10.0 | 0.00 | 0.00 | 0.00 | 53 | 1009.6 |
| 20260505035158 | 61 | 160 | 3.0 | 9.0 | 0.00 | 0.00 | 0.00 | 53 | 1009.6 |
| 20260505034558 | 61 | 153 | 2.0 | 7.0 | 0.00 | 0.00 | 0.00 | 54 | 1009.7 |
| 20260505034100 | 61 | 170 | 3.0 | 7.0 | 0.00 | 0.00 | 0.00 | 53 | 1009.7 |
| 20260505033558 | 61 | 156 | 2.0 | 8.0 | 0.00 | 0.00 | 0.00 | 54 | 1009.7 |
| 20260505033058 | 61 | 146 | 3.0 | 8.0 | 0.00 | 0.00 | 0.00 | 53 | 1009.8 |
| 20260505032559 | 61 | 135 | 1.0 | 6.0 | 0.00 | 0.00 | 0.00 | 53 | 1009.8 |
| 20260505032057 | 61 | 121 | 2.0 | 7.0 | 0.00 | 0.00 | 0.00 | 53 | 1009.8 |
| 20260505031605 | 61 | 146 | 2.0 | 8.0 | 0.00 | 0.00 | 0.00 | 53 | 1009.9 |
| 20260505031057 | 61 | 148 | 3.0 | 8.0 | 0.00 | 0.00 | 0.00 | 53 | 1009.9 |
| 20260505030557 | 61 | 149 | 3.0 | 9.0 | 0.00 | 0.00 | 0.00 | 53 | 1009.8 |
| 20260505030104 | 61 | 158 | 3.0 | 9.0 | 0.00 | 0.00 | 0.00 | 53 | 1009.8 |
| 20260505025557 | 61 | 150 | 2.0 | 8.0 | 0.00 | 0.00 | 0.00 | 52 | 1010.0 |
| 20260505025059 | 61 | 113 | 3.0 | 7.0 | 0.00 | 0.00 | 0.00 | 53 | 1010.0 |
| 20260505024607 | 61 | 128 | 3.0 | 7.0 | 0.00 | 0.00 | 0.00 | 53 | 1010.1 |
| 20260505024056 | 61 | 128 | 3.0 | 7.0 | 0.00 | 0.00 | 0.00 | 52 | 1010.0 |
| 20260505023556 | 61 | 165 | 2.0 | 7.0 | 0.00 | 0.00 | 0.00 | 52 | 1010.1 |
| 20260505023059 | 62 | 137 | 2.0 | 5.0 | 0.00 | 0.00 | 0.00 | 52 | 1010.1 |
| 20260505022559 | 62 | 145 | 2.0 | 7.0 | 0.00 | 0.00 | 0.00 | 51 | 1010.1 |
| 20260505022057 | 62 | 155 | 3.0 | 7.0 | 0.00 | 0.00 | 0.00 | 51 | 1010.1 |
| 20260505021559 | 62 | 150 | 1.0 | 5.0 | 0.00 | 0.00 | 0.00 | 51 | 1010.2 |
| 20260505021055 | 62 | 155 | 2.0 | 7.0 | 0.00 | 0.00 | 0.00 | 50 | 1010.1 |
| 20260505020554 | 62 | 155 | 1.0 | 7.0 | 0.00 | 0.00 | 0.00 | 50 | 1010.2 |
| 20260505020103 | 62 | 144 | 2.0 | 5.0 | 0.00 | 0.00 | 0.00 | 49 | 1010.2 |
| 20260505015554 | 63 | 118 | 2.0 | 6.0 | 0.00 | 0.00 | 0.00 | 49 | 1010.1 |
| 20260505015054 | 63 | 147 | 2.0 | 5.0 | 0.00 | 0.00 | 0.00 | 48 | 1010.2 |
| 20260505014554 | 63 | 145 | 2.0 | 5.0 | 0.00 | 0.00 | 0.00 | 48 | 1010.1 |
| 20260505014055 | 63 | 169 | 2.0 | 5.0 | 0.00 | 0.00 | 0.00 | 48 | 1010.1 |
| 20260505013553 | 63 | 159 | 2.0 | 7.0 | 0.00 | 0.00 | 0.00 | 48 | 1010.1 |
| 20260505013053 | 63 | 156 | 3.0 | 7.0 | 0.00 | 0.00 | 0.00 | 47 | 1010.0 |
| 20260505012553 | 63 | 148 | 1.0 | 6.0 | 0.00 | 0.00 | 0.00 | 47 | 1010.0 |
| 20260505012053 | 63 | 152 | 2.0 | 5.0 | 0.00 | 0.00 | 0.00 | 47 | 1010.0 |
| 20260505011553 | 64 | 160 | 2.0 | 5.0 | 0.00 | 0.00 | 0.00 | 47 | 1009.9 |
| 20260505011052 | 64 | 149 | 1.0 | 5.0 | 0.00 | 0.00 | 0.00 | 46 | 1009.8 |
| 20260505010555 | 64 | 159 | 2.0 | 5.0 | 0.00 | 0.00 | 0.00 | 45 | 1009.8 |
| 20260505010108 | 64 | 131 | 1.0 | 4.0 | 0.00 | 0.00 | 0.00 | 45 | 1009.7 |
| 20260505005552 | 64 | 153 | 0.0 | 4.0 | 0.00 | 0.00 | 0.00 | 45 | 1009.7 |
| 20260505005052 | 64 | 153 | 1.0 | 4.0 | 0.00 | 0.00 | 0.00 | 45 | 1009.6 |
| 20260505004554 | 64 | 152 | 1.0 | 4.0 | 0.00 | 0.00 | 0.00 | 45 | 1009.5 |
| 20260505004052 | 64 | 155 | 1.0 | 3.0 | 0.00 | 0.00 | 0.00 | 45 | 1009.5 |
| 20260505003551 | 64 | 155 | 1.0 | 4.0 | 0.00 | 0.00 | 0.00 | 45 | 1009.5 |
| 20260505003053 | 65 | 149 | 1.0 | 4.0 | 0.00 | 0.00 | 0.00 | 44 | 1009.5 |
| 20260505002551 | 65 | 153 | 1.0 | 3.0 | 0.00 | 0.00 | 0.00 | 44 | 1009.4 |
| 20260505002051 | 65 | 186 | 0.0 | 2.0 | 0.00 | 0.00 | 0.00 | 44 | 1009.4 |
| 20260505001551 | 65 | 186 | 0.0 | 2.0 | 0.00 | 0.00 | 0.00 | 44 | 1009.3 |
| 20260505001054 | 65 | 160 | 0.0 | 1.0 | 0.00 | 0.00 | 0.00 | 44 | 1009.3 |
| 20260505000550 | 65 | 160 | 0.0 | 3.0 | 0.00 | 0.00 | 0.00 | 43 | 1009.3 |
| 20260505000058 | 66 | 160 | 0.0 | 3.0 | 0.00 | 0.00 | 0.00 | 44 | 1009.3 |
| 20260504235554 | 66 | 157 | 0.0 | 4.0 | 0.00 | 0.00 | 0.00 | 42 | 1009.3 |
| 20260504235050 | 66 | 196 | 1.0 | 5.0 | 0.00 | 0.00 | 0.00 | 43 | 1009.3 |
| 20260504234551 | 66 | 150 | 1.0 | 5.0 | 0.00 | 0.00 | 0.00 | 42 | 1009.2 |
| 20260504234049 | 66 | 158 | 2.0 | 6.0 | 0.00 | 0.00 | 0.00 | 43 | 1009.1 |
| 20260504233553 | 66 | 142 | 0.0 | 6.0 | 0.00 | 0.00 | 0.00 | 42 | 1009.1 |
| 20260504233054 | 67 | 147 | 0.0 | 5.0 | 0.00 | 0.00 | 0.00 | 43 | 1009.0 |
| 20260504232550 | 67 | 216 | 0.0 | 2.0 | 0.00 | 0.00 | 0.00 | 42 | 1009.1 |
| 20260504232049 | 67 | 216 | 1.0 | 2.0 | 0.00 | 0.00 | 0.00 | 43 | 1009.0 |
| 20260504231551 | 67 | 56 | 1.0 | 3.0 | 0.00 | 0.00 | 0.00 | 42 | 1009.0 |
| 20260504231049 | 67 | 228 | 0.0 | 3.0 | 0.00 | 0.00 | 0.00 | 42 | 1009.0 |
| 20260504230552 | 67 | 228 | 1.0 | 7.0 | 0.00 | 0.00 | 0.00 | 42 | 1008.9 |
| 20260504230108 | 67 | 157 | 1.0 | 3.0 | 0.00 | 0.00 | 0.00 | 42 | 1008.9 |
| 20260504225650 | 68 | 212 | 1.0 | 3.0 | 0.00 | 0.00 | 0.00 | 42 | 1008.9 |
| 20260504225051 | 68 | 236 | 1.0 | 3.0 | 0.00 | 0.00 | 0.00 | 42 | 1008.9 |
| 20260504224600 | 68 | 236 | 1.0 | 7.0 | 0.00 | 0.00 | 0.00 | 41 | 1008.9 |
| 20260504224047 | 68 | 166 | 1.0 | 7.0 | 0.00 | 0.00 | 0.00 | 41 | 1008.9 |
| 20260504223547 | 68 | 111 | 1.0 | 7.0 | 0.00 | 0.00 | 0.00 | 42 | 1008.9 |
| 20260504223048 | 68 | 239 | 1.0 | 5.0 | 0.00 | 0.00 | 0.00 | 41 | 1008.9 |
| 20260504222548 | 69 | 245 | 0.0 | 4.0 | 0.00 | 0.00 | 0.00 | 42 | 1008.9 |
| 20260504222047 | 69 | 245 | 1.0 | 4.0 | 0.00 | 0.00 | 0.00 | 43 | 1009.0 |
| 20260504221547 | 69 | 262 | 0.0 | 4.0 | 0.00 | 0.00 | 0.00 | 41 | 1009.0 |
| 20260504221046 | 69 | 236 | 2.0 | 7.0 | 0.00 | 0.00 | 0.00 | 41 | 1009.0 |
| 20260504220546 | 69 | 226 | 1.0 | 7.0 | 0.00 | 0.00 | 0.00 | 40 | 1009.0 |
| 20260504220053 | 69 | 244 | 1.0 | 7.0 | 0.00 | 0.00 | 0.00 | 41 | 1009.0 |
| 20260504215546 | 69 | 231 | 1.0 | 7.0 | 0.00 | 0.00 | 0.00 | 40 | 1009.1 |
| 20260504215045 | 70 | 177 | 1.0 | 4.0 | 0.00 | 0.00 | 0.00 | 38 | 1009.0 |
| 20260504214547 | 70 | 210 | 1.0 | 4.0 | 0.00 | 0.00 | 0.00 | 40 | 1009.1 |
| 20260504214044 | 70 | 254 | 2.0 | 5.0 | 0.00 | 0.00 | 0.00 | 40 | 1009.1 |
| 20260504213544 | 70 | 216 | 2.0 | 5.0 | 0.00 | 0.00 | 0.00 | 39 | 1009.1 |
| 20260504213044 | 70 | 197 | 1.0 | 5.0 | 0.00 | 0.00 | 0.00 | 39 | 1009.0 |
| 20260504212543 | 70 | 230 | 2.0 | 4.0 | 0.00 | 0.00 | 0.00 | 40 | 1009.1 |
| 20260504212043 | 70 | 267 | 2.0 | 6.0 | 0.00 | 0.00 | 0.00 | 38 | 1009.2 |
| 20260504211543 | 70 | 268 | 2.0 | 6.0 | 0.00 | 0.00 | 0.00 | 40 | 1009.2 |
| 20260504211042 | 70 | 234 | 1.0 | 6.0 | 0.00 | 0.00 | 0.00 | 39 | 1009.2 |
| 20260504210545 | 70 | 234 | 3.0 | 6.0 | 0.00 | 0.00 | 0.00 | 39 | 1009.2 |
| 20260504210054 | 70 | 239 | 1.0 | 7.0 | 0.00 | 0.00 | 0.00 | 42 | 1009.2 |
| 20260504205542 | 70 | 262 | 2.0 | 7.0 | 0.00 | 0.00 | 0.00 | 38 | 1009.2 |
| 20260504205039 | 70 | 250 | 2.0 | 5.0 | 0.00 | 0.00 | 0.00 | 40 | 1009.3 |
| 20260504204547 | 70 | 259 | 1.0 | 5.0 | 0.00 | 0.00 | 0.00 | 39 | 1009.4 |
| 20260504204039 | 70 | 248 | 1.0 | 10.0 | 0.00 | 0.00 | 0.00 | 40 | 1009.4 |
| 20260504203539 | 70 | 169 | 3.0 | 10.0 | 0.00 | 0.00 | 0.00 | 40 | 1009.4 |
| 20260504203043 | 70 | 257 | 1.0 | 7.0 | 0.00 | 0.00 | 0.00 | 40 | 1009.4 |
| 20260504202539 | 70 | 236 | 2.0 | 7.0 | 0.00 | 0.00 | 0.00 | 39 | 1009.4 |
| 20260504202039 | 70 | 229 | 2.0 | 4.0 | 0.00 | 0.00 | 0.00 | 39 | 1009.5 |
| 20260504201544 | 70 | 273 | 2.0 | 4.0 | 0.00 | 0.00 | 0.00 | 39 | 1009.4 |
| 20260504201037 | 70 | 243 | 2.0 | 7.0 | 0.00 | 0.00 | 0.00 | 39 | 1009.5 |
| 20260504200537 | 70 | 233 | 2.0 | 7.0 | 0.00 | 0.00 | 0.00 | 38 | 1009.6 |
| 20260504200049 | 70 | 249 | 2.0 | 7.0 | 0.00 | 0.00 | 0.00 | 40 | 1009.6 |
| 20260504195535 | 70 | 261 | 2.0 | 7.0 | 0.00 | 0.00 | 0.00 | 36 | 1009.7 |
| 20260504195035 | 70 | 271 | 3.0 | 7.0 | 0.00 | 0.00 | 0.00 | 38 | 1009.7 |
| 20260504194536 | 70 | 228 | 2.0 | 7.0 | 0.00 | 0.00 | 0.00 | 40 | 1009.7 |
| 20260504194036 | 70 | 228 | 2.0 | 7.0 | 0.00 | 0.00 | 0.00 | 38 | 1009.7 |
| 20260504193534 | 70 | 234 | 3.0 | 6.0 | 0.00 | 0.00 | 0.00 | 38 | 1009.8 |
| 20260504193034 | 70 | 234 | 3.0 | 6.0 | 0.00 | 0.00 | 0.00 | 37 | 1009.8 |
| 20260504192533 | 70 | 259 | 2.0 | 6.0 | 0.00 | 0.00 | 0.00 | 38 | 1009.8 |
| 20260504192034 | 70 | 241 | 2.0 | 7.0 | 0.00 | 0.00 | 0.00 | 37 | 1009.9 |
| 20260504191534 | 70 | 234 | 2.0 | 5.0 | 0.00 | 0.00 | 0.00 | 39 | 1009.9 |
| 20260504191032 | 70 | 268 | 2.0 | 7.0 | 0.00 | 0.00 | 0.00 | 36 | 1009.9 |
| 20260504190532 | 70 | 262 | 3.0 | 7.0 | 0.00 | 0.00 | 0.00 | 35 | 1010.1 |
| 20260504190031 | 70 | 255 | 2.0 | 4.0 | 0.00 | 0.00 | 0.00 | 40 | 1010.1 |
| 20260504185529 | 70 | 255 | 2.0 | 6.0 | 0.00 | 0.00 | 0.00 | 38 | 1010.2 |
| 20260504185028 | 69 | 248 | 1.0 | 6.0 | 0.00 | 0.00 | 0.00 | 37 | 1010.2 |
| 20260504184535 | 70 | 270 | 2.0 | 6.0 | 0.00 | 0.00 | 0.00 | 38 | 1010.4 |
| 20260504184031 | 70 | 276 | 3.0 | 6.0 | 0.00 | 0.00 | 0.00 | 39 | 1010.5 |
| 20260504183526 | 69 | 232 | 1.0 | 7.0 | 0.00 | 0.00 | 0.00 | 37 | 1010.4 |
| 20260504183033 | 69 | 263 | 2.0 | 8.0 | 0.00 | 0.00 | 0.00 | 36 | 1010.6 |
| 20260504182525 | 69 | 255 | 3.0 | 8.0 | 0.00 | 0.00 | 0.00 | 36 | 1010.6 |
| 20260504182024 | 69 | 279 | 1.0 | 5.0 | 0.00 | 0.00 | 0.00 | 38 | 1010.6 |
| 20260504181523 | 69 | 264 | 3.0 | 6.0 | 0.00 | 0.00 | 0.00 | 37 | 1010.7 |
| 20260504181026 | 69 | 272 | 3.0 | 10.0 | 0.00 | 0.00 | 0.00 | 36 | 1010.8 |
| 20260504180522 | 69 | 280 | 2.0 | 10.0 | 0.00 | 0.00 | 0.00 | 39 | 1010.9 |
| 20260504180023 | 69 | 269 | 3.0 | 6.0 | 0.00 | 0.00 | 0.00 | 39 | 1011.0 |
| 20260504175520 | 69 | 238 | 3.0 | 6.0 | 0.00 | 0.00 | 0.00 | 39 | 1011.1 |
| 20260504175020 | 68 | 230 | 2.0 | 8.0 | 0.00 | 0.00 | 0.00 | 35 | 1011.2 |
| 20260504174520 | 68 | 233 | 2.0 | 8.0 | 0.00 | 0.00 | 0.00 | 39 | 1011.2 |
| 20260504174023 | 68 | 251 | 3.0 | 6.0 | 0.00 | 0.00 | 0.00 | 37 | 1011.2 |
| 20260504173522 | 69 | 239 | 3.0 | 7.0 | 0.00 | 0.00 | 0.00 | 39 | 1011.3 |
| 20260504173019 | 69 | 268 | 3.0 | 7.0 | 0.00 | 0.00 | 0.00 | 36 | 1011.3 |
| 20260504172521 | 69 | 257 | 3.0 | 6.0 | 0.00 | 0.00 | 0.00 | 36 | 1011.4 |
| 20260504172017 | 68 | 249 | 1.0 | 4.0 | 0.00 | 0.00 | 0.00 | 44 | 1011.4 |
| 20260504171517 | 68 | 241 | 1.0 | 4.0 | 0.00 | 0.00 | 0.00 | 39 | 1011.4 |
| 20260504171015 | 68 | 230 | 2.0 | 5.0 | 0.00 | 0.00 | 0.00 | 40 | 1011.5 |
| 20260504170515 | 67 | 236 | 2.0 | 5.0 | 0.00 | 0.00 | 0.00 | 39 | 1011.6 |